METEOR 2-1

导读 | 星芒AI

METEOR-2-1 是俄罗斯于1988年发射的气象卫星,属于 METEOR-2 系列。该卫星主要用于气象观测,搭载了多通道扫描辐射计等仪器,能够获取云层分布、地表温度和大气参数等数据。它运行在近地太阳同步轨道,为天气预报和环境监测提供了重要支持。该系列卫星在苏联及俄罗斯的气象体系中发挥了关键作用,为后续气象卫星的发展奠定了基础。

基本信息
目录编号:
8026
目录名称:
METEOR 2-1
国际标识:
1975-064A
轨道中心:
EARTH
卫星名称:
METEOR 2-1
卫星全名:
--
卫星状态:
在轨 (已飞行18418 天)
发射日期:
1975-07-11 UTC
国别 :
俄罗斯(独联体) (CIS)
星等 :
--
轨道信息
数据来源 国际轨道数据 AOE轨道数据
星历时间 2025-12-13T06:58:04+0800
10小时前
查看轨道信息
2025-12-07T04:00:00+0800
6天前
查看轨道信息
半长轴 7234.861km 7234.852km
偏心率 0.0022358 0.0022695
轨道倾角 81.278° 81.280°
近地点辐角 28.881° 45.666°
升交点赤经 204.030° 209.975°
平近点角 331.359° 191.192°
近地点 840.55km 840.297km
远地点 872.902km 873.137km
周期 102.072分钟 102.071分钟
每日圈数 14.107742 14.10777
详细信息
使用方式:
暂无
2D轨道图
3D轨道图
轨道高度分析图
轨道倾角分析图
轨道综合分析图
查看轨道综合分析图